• In Czech Republic
  • List of Countries
  • For 7 days
  • Water Temperature
  • Satellite Maps
  • Weather Map
  • Weather Widgets
  • user-avatar
    Login

    Hourly Weather Matlock

    Today, 20 October, Friday

    Time Temperature Precipitation Wind Pressure Humidity
    00:00 +12°C° 0 mm 3 mps 729 mmHg 90%
    01:00 +12°C° 0.2 mm 3 mps 729 mmHg 90%
    02:00 +12°C° 0.2 mm 2 mps 729 mmHg 90%
    03:00 +12°C° 0.2 mm 2 mps 729 mmHg 90%
    04:00 +10°C° 0 mm 2 mps 730 mmHg 91%
    05:00 +10°C° 0 mm 2 mps 730 mmHg 92%
    06:00 +9°C° 0 mm 2 mps 731 mmHg 93%
    07:00 +10°C° 0.1 mm 3 mps 732 mmHg 92%
    08:00 +11°C° 0.1 mm 4 mps 733 mmHg 90%
    09:00 +12°C° 0.1 mm 5 mps 734 mmHg 89%
    10:00 +12°C° 0 mm 5 mps 735 mmHg 86%
    11:00 +12°C° 0 mm 5 mps 735 mmHg 84%
    12:00 +13°C° 0 mm 5 mps 736 mmHg 82%
    13:00 +12°C° 0 mm 5 mps 737 mmHg 80%
    14:00 +12°C° 0 mm 5 mps 737 mmHg 79%
    15:00 +12°C° 0 mm 4 mps 737 mmHg 77%
    16:00 +11°C° 0 mm 4 mps 737 mmHg 78%
    17:00 +10°C° 0 mm 4 mps 737 mmHg 79%
    18:00 +10°C° 0 mm 3 mps 737 mmHg 80%
    19:00 +10°C° 0 mm 4 mps 737 mmHg 81%
    20:00 +9°C° 0 mm 5 mps 736 mmHg 83%
    21:00 +9°C° 0 mm 5 mps 736 mmHg 84%
    22:00 +10°C° 0.7 mm 6 mps 735 mmHg 85%
    23:00 +10°C° 0.7 mm 7 mps 734 mmHg 87%

    Tomorrow, 21 October, Saturday

    Time Temperature Precipitation Wind Pressure Humidity
    00:00 +10°C° 0.7 mm 7 mps 733 mmHg 89%
    01:00 +11°C° 0.8 mm 7 mps 733 mmHg 88%
    02:00 +11°C° 0.8 mm 7 mps 732 mmHg 86%
    03:00 +11°C° 0.8 mm 7 mps 732 mmHg 85%
    04:00 +10°C° 0 mm 7 mps 731 mmHg 84%
    05:00 +10°C° 0 mm 7 mps 731 mmHg 83%
    06:00 +9°C° 0 mm 7 mps 730 mmHg 82%
    07:00 +9°C° 0 mm 8 mps 730 mmHg 79%
    08:00 +10°C° 0 mm 9 mps 729 mmHg 76%
    09:00 +9°C° 0 mm 10 mps 729 mmHg 73%
    10:00 +9°C° 0.4 mm 10 mps 728 mmHg 74%
    11:00 +11°C° 0.4 mm 10 mps 728 mmHg 75%
    12:00 +11°C° 0.4 mm 10 mps 727 mmHg 75%
    13:00 +11°C° 0.8 mm 10 mps 727 mmHg 77%
    14:00 +11°C° 0.8 mm 10 mps 727 mmHg 79%
    15:00 +11°C° 0.8 mm 10 mps 727 mmHg 81%
    16:00 +9°C° 0.2 mm 10 mps 727 mmHg 81%
    17:00 +10°C° 0.2 mm 9 mps 728 mmHg 80%
    18:00 +10°C° 0.2 mm 9 mps 728 mmHg 80%
    19:00 +10°C° 0.1 mm 8 mps 729 mmHg 80%
    20:00 +10°C° 0.1 mm 8 mps 730 mmHg 81%
    21:00 +9°C° 0.1 mm 8 mps 730 mmHg 81%
    22:00 +9°C° 0.1 mm 8 mps 731 mmHg 81%
    23:00 +9°C° 0.1 mm 8 mps 731 mmHg 82%

    Day after tomorrow, 22 October, Sunday

    Time Temperature Precipitation Wind Pressure Humidity
    00:00 +7°C° 0.1 mm 8 mps 732 mmHg 82%
    01:00 +8°C° 1.1 mm 9 mps 732 mmHg 83%
    02:00 +8°C° 1.1 mm 9 mps 733 mmHg 83%
    03:00 +8°C° 1.1 mm 10 mps 733 mmHg 83%
    04:00 +7°C° 0.3 mm 10 mps 734 mmHg 82%
    05:00 +7°C° 0.3 mm 9 mps 735 mmHg 81%
    06:00 +7°C° 0.3 mm 9 mps 736 mmHg 80%
    07:00 +7°C° 0.1 mm 9 mps 736 mmHg 78%
    08:00 +7°C° 0.1 mm 9 mps 737 mmHg 76%
    09:00 +7°C° 0.1 mm 9 mps 737 mmHg 75%
    10:00 +7°C° 0.1 mm 9 mps 737 mmHg 74%
    11:00 +7°C° 0.1 mm 9 mps 738 mmHg 74%
    12:00 +8°C° 0.1 mm 10 mps 738 mmHg 73%
    13:00 +8°C° 0.7 mm 10 mps 738 mmHg 74%
    14:00 +8°C° 0.7 mm 10 mps 738 mmHg 75%
    15:00 +8°C° 0.7 mm 11 mps 738 mmHg 76%
    16:00 +8°C° 0 mm 10 mps 739 mmHg 76%
    17:00 +8°C° 0 mm 9 mps 740 mmHg 76%
    18:00 +7°C° 0 mm 8 mps 740 mmHg 76%
    19:00 +7°C° 0 mm 8 mps 741 mmHg 77%
    20:00 +8°C° 0 mm 7 mps 741 mmHg 77%
    21:00 +8°C° 0 mm 7 mps 742 mmHg 78%
    22:00 +8°C° 0 mm 6 mps 742 mmHg 79%
    23:00 +8°C° 0 mm 6 mps 742 mmHg 80%

    23 October, Monday

    Time Temperature Precipitation Wind Pressure Humidity
    00:00 +7°C° 0 mm 5 mps 743 mmHg 82%
    01:00 +8°C° 0.2 mm 5 mps 743 mmHg 84%
    02:00 +8°C° 0.2 mm 4 mps 743 mmHg 86%
    03:00 +8°C° 0.2 mm 4 mps 743 mmHg 89%
    04:00 +9°C° 1 mm 3 mps 742 mmHg 91%
    05:00 +9°C° 1 mm 3 mps 742 mmHg 93%
    06:00 +9°C° 1 mm 3 mps 742 mmHg 94%
    07:00 +10°C° 0.5 mm 3 mps 742 mmHg 95%
    08:00 +10°C° 0.5 mm 3 mps 742 mmHg 95%
    09:00 +11°C° 0.5 mm 3 mps 741 mmHg 95%
    10:00 +12°C° 0.1 mm 3 mps 741 mmHg 94%
    11:00 +13°C° 0.1 mm 3 mps 741 mmHg 93%
    12:00 +13°C° 0.1 mm 3 mps 741 mmHg 92%
    13:00 +14°C° 0 mm 3 mps 742 mmHg 91%
    14:00 +16°C° 0 mm 3 mps 742 mmHg 89%
    15:00 +16°C° 0 mm 3 mps 742 mmHg 87%
    16:00 +14°C° 0 mm 3 mps 743 mmHg 89%
    17:00 +13°C° 0 mm 3 mps 743 mmHg 90%
    18:00 +13°C° 0 mm 2 mps 743 mmHg 91%
    19:00 +13°C° 0 mm 2 mps 744 mmHg 91%
    20:00 +13°C° 0 mm 2 mps 744 mmHg 91%
    21:00 +12°C° 0 mm 2 mps 744 mmHg 91%
    22:00 +12°C° 0 mm 2 mps 744 mmHg 91%
    23:00 +11°C° 0 mm 3 mps 744 mmHg 91%

    24 October, Tuesday

    Time Temperature Precipitation Wind Pressure Humidity
    00:00 +11°C° 0 mm 3 mps 744 mmHg 90%
    01:00 +11°C° 0.1 mm 3 mps 744 mmHg 92%
    02:00 +12°C° 0.1 mm 3 mps 743 mmHg 94%
    03:00 +12°C° 0.1 mm 4 mps 743 mmHg 95%
    04:00 +13°C° 1 mm 4 mps 743 mmHg 95%
    05:00 +13°C° 1 mm 5 mps 743 mmHg 96%
    06:00 +14°C° 1 mm 5 mps 742 mmHg 96%
    07:00 +14°C° 1.4 mm 5 mps 742 mmHg 95%
    08:00 +15°C° 1.4 mm 6 mps 742 mmHg 93%
    09:00 +15°C° 1.4 mm 6 mps 742 mmHg 92%
    10:00 +16°C° 0.2 mm 7 mps 742 mmHg 91%
    11:00 +16°C° 0.2 mm 7 mps 742 mmHg 90%
    12:00 +16°C° 0.2 mm 7 mps 742 mmHg 88%
    13:00 +16°C° 1.2 mm 7 mps 742 mmHg 88%
    14:00 +16°C° 1.2 mm 7 mps 742 mmHg 88%
    15:00 +16°C° 1.2 mm 7 mps 741 mmHg 87%
    16:00 +16°C° 0.1 mm 6 mps 742 mmHg 88%
    17:00 +16°C° 0.1 mm 6 mps 742 mmHg 89%
    18:00 +15°C° 0.1 mm 6 mps 742 mmHg 89%
    19:00 +15°C° 0.3 mm 6 mps 743 mmHg 89%
    20:00 +15°C° 0.3 mm 6 mps 743 mmHg 89%
    21:00 +15°C° 0.3 mm 6 mps 744 mmHg 89%
    22:00 +14°C° 0.2 mm 5 mps 744 mmHg 88%
    23:00 +13°C° 0.2 mm 4 mps 745 mmHg 87%

    25 October, Wednesday

    Time Temperature Precipitation Wind Pressure Humidity
    00:00 +13°C° 0.2 mm 3 mps 745 mmHg 86%
    01:00 +13°C° 0 mm 2 mps 746 mmHg 88%
    02:00 +12°C° 0 mm 2 mps 746 mmHg 89%
    03:00 +12°C° 0 mm 2 mps 746 mmHg 90%
    04:00 +11°C° 0 mm 1 mps 746 mmHg 90%
    05:00 +11°C° 0 mm 1 mps 747 mmHg 90%
    06:00 +11°C° 0 mm 1 mps 747 mmHg 90%
    07:00 +12°C° 0 mm 1 mps 747 mmHg 88%
    08:00 +12°C° 0 mm 1 mps 747 mmHg 87%
    09:00 +13°C° 0 mm 1 mps 748 mmHg 85%
    10:00 +13°C° 0.1 mm 2 mps 747 mmHg 84%
    11:00 +14°C° 0.1 mm 2 mps 747 mmHg 84%
    12:00 +15°C° 0.1 mm 2 mps 747 mmHg 83%
    13:00 +15°C° 2 mm 2 mps 747 mmHg 86%
    14:00 +15°C° 2 mm 2 mps 747 mmHg 89%
    15:00 +14°C° 2 mm 2 mps 746 mmHg 92%
    16:00 +13°C° 0.5 mm 3 mps 746 mmHg 92%
    17:00 +13°C° 0.5 mm 3 mps 746 mmHg 92%
    18:00 +13°C° 0.5 mm 3 mps 746 mmHg 93%
    19:00 +12°C° 0 mm 3 mps 746 mmHg 93%
    20:00 +12°C° 0 mm 3 mps 746 mmHg 93%
    21:00 +12°C° 0 mm 3 mps 747 mmHg 93%
    22:00 +11°C° 0 mm 3 mps 746 mmHg 93%
    23:00 +11°C° 0 mm 3 mps 746 mmHg 94%
    Show more